Theta_e
333 334 333 332 331 330 328 327 326 327 324 322 321 320 319 318 317 316 311 310 314 319 322 323 324 325 325 324 322 321 319 317 316 317 317 316 315 315 315 315 314 315 314
334 332 331 330 329 328 326 326 326 326 322 321 320 319 317 315 314 312 311 307 307 310 315 318 319 320 322 322 321 319 318 316 314 314 314 314 313 312 312 312 312 312 312
333 332 329 328 327 325 324 325 325 323 321 320 317 316 315 313 310 308 307 305 305 304 307 312 315 316 317 318 318 317 315 314 312 312 312 312 311 311 310 310 310 311 311
331 329 326 323 322 322 322 323 323 319 320 318 316 315 313 310 308 304 303 302 301 301 301 303 307 310 312 314 315 314 313 312 310 309 309 309 310 309 309 309 309 310 310
324 325 321 320 320 320 321 322 321 319 316 316 314 313 312 309 306 303 300 299 299 299 299 299 299 303 306 309 311 311 311 310 308 308 308 307 307 308 308 308 308 308 308
320 319 319 318 318 316 317 320 319 317 316 314 311 309 308 307 306 303 300 298 297 297 297 297 298 297 301 304 306 308 308 307 307 307 306 306 306 306 306 306 307 307 307
317 318 316 313 312 311 313 319 318 315 314 314 310 306 304 303 302 301 300 298 296 295 295 295 295 296 296 299 301 304 305 305 304 304 303 303 303 304 304 305 304 305 305
313 314 313 310 308 306 308 315 316 314 313 313 311 309 304 301 300 299 298 297 295 295 293 292 292 292 294 294 296 299 300 302 302 302 300 301 302 302 302 303 304 304 303
309 309 308 307 305 305 304 307 313 313 310 309 309 308 303 301 302 299 296 296 294 293 292 292 290 290 291 292 293 294 296 297 299 299 299 299 299 299 300 302 302 302 302
306 305 304 304 304 304 303 303 304 308 310 305 304 305 307 305 299 295 296 294 293 292 291 291 290 289 289 290 291 291 293 294 295 295 296 296 297 298 299 299 299 299 299
304 302 302 302 302 302 302 302 302 303 303 304 303 301 302 301 302 298 294 292 292 291 290 289 289 289 288 288 288 288 290 292 292 292 293 293 295 295 296 297 297 297 297
301 300 300 301 300 300 300 300 301 300 299 298 298 298 298 296 295 294 293 294 292 290 290 289 288 287 287 287 285 284 287 290 291 290 291 291 292 292 293 294 294 294 294
300 299 299 298 298 298 298 298 298 298 297 296 296 293 293 292 293 293 292 292 291 290 288 288 287 287 286 286 284 282 283 287 290 289 289 289 290 290 290 291 292 292 292
300 299 299 298 297 296 296 296 296 296 296 295 293 293 291 290 291 290 290 289 288 290 289 289 287 287 286 284 281 281 282 283 287 286 287 287 288 288 288 289 289 289 290
299 298 298 296 296 295 295 295 295 293 294 294 292 292 290 289 289 289 289 288 288 286 287 287 286 286 285 284 280 281 281 280 284 284 284 285 285 285 286 286 287 288 288
297 297 297 296 295 295 294 295 294 293 293 292 291 290 289 289 288 288 287 286 286 285 284 287 286 285 284 282 280 280 279 278 281 281 282 282 283 284 284 284 285 285 286
296 296 296 295 294 293 293 293 293 291 291 289 289 289 288 287 286 286 286 285 284 285 283 285 284 283 281 280 280 280 279 278 278 279 280 281 281 281 282 282 283 283 283
296 296 295 294 293 293 292 292 291 290 289 288 288 287 286 285 285 285 285 284 284 284 282 281 283 281 280 280 279 278 277 276 276 277 279 281 281 280 281 282 281 281 281
295 295 294 293 292 292 291 291 291 289 289 289 288 286 286 285 284 284 284 283 283 283 282 281 281 281 281 279 277 277 276 276 276 276 277 278 279 279 280 280 280 280 279
294 293 293 293 292 291 290 290 289 289 288 288 287 286 286 285 284 284 283 282 282 281 281 280 280 280 279 278 276 275 275 276 275 276 276 276 277 277 278 278 278 277 277
293 293 292 291 291 290 289 289 288 288 287 286 285 284 284 284 283 283 282 282 281 280 280 279 279 278 277 276 274 275 273 274 275 274 273 274 274 274 275 276 276 276 277
291 290 290 289 289 289 290 290 288 286 285 284 284 283 283 282 281 282 282 282 281 279 279 279 278 277 277 275 275 274 273 272 272 273 271 271 274 273 274 274 276 277 277
289 288 288 288 288 289 289 289 288 285 285 284 283 282 282 281 282 281 282 281 280 280 280 278 277 277 276 275 274 271 271 271 271 272 269 269 272 271 273 274 276 276 276
288 288 288 288 288 288 289 288 288 285 284 284 283 283 282 281 281 281 281 279 278 277 276 276 276 276 276 275 274 274 273 271 271 271 270 267 271 269 271 272 275 274 275
287 287 287 287 286 286 289 288 287 285 284 283 283 283 282 281 283 283 280 278 276 276 277 276 276 276 275 276 275 272 269 268 269 271 269 267 269 268 269 269 271 273 274
286 286 285 286 285 286 288 288 288 285 284 283 282 281 282 282 283 283 280 277 273 274 274 273 274 275 275 274 274 271 271 268 269 267 268 266 268 266 266 271 270 270 269
Wind_Speed
1 1 3 3 4 5 4 3 4 6 8 7 6 8 8 9 8 5 7 20 23 22 22 22 21 21 19 18 18 18 17 17 18 19 19 17 16 16 17 17 16 16 15
1 1 2 3 3 3 3 2 3 5 6 5 7 9 9 8 8 8 6 9 22 21 21 20 20 18 19 19 18 18 17 17 16 16 16 16 15 14 15 16 15 14 14
1 1 1 1 3 2 1 0 7 4 5 5 8 8 8 8 8 9 8 7 7 18 20 21 19 18 17 17 17 17 16 15 15 14 15 15 15 15 14 12 12 13 12
0 1 1 1 2 1 1 2 5 4 4 5 5 6 6 7 8 9 8 7 7 6 11 17 18 18 17 16 15 14 14 15 15 15 15 16 17 16 14 14 12 14 13
1 1 1 2 2 2 2 2 5 3 4 4 5 5 5 6 7 7 8 8 8 7 6 11 14 18 18 18 17 16 16 15 14 14 15 15 15 16 18 18 17 15 15
3 2 1 2 2 2 1 1 8 1 3 4 4 6 6 5 5 5 6 6 7 7 7 8 6 7 16 17 17 16 14 14 14 14 14 15 16 18 16 20 15 14 16
3 3 2 2 2 3 2 2 5 6 4 3 4 5 4 4 5 5 5 5 5 6 8 7 5 5 6 14 16 16 15 15 13 13 14 15 13 16 17 15 13 16 19
2 3 2 2 3 3 3 3 3 2 4 1 3 0 4 4 3 4 4 4 5 5 5 6 7 7 7 6 8 15 15 15 14 15 13 13 15 14 14 15 15 18 16
5 4 3 3 3 2 3 2 2 4 3 2 1 3 2 1 5 4 4 3 3 3 4 4 6 7 6 6 9 11 14 13 14 14 13 13 13 12 12 12 14 16 16
6 4 4 3 3 3 4 3 0 2 2 3 2 2 3 2 2 3 3 3 2 3 3 3 4 5 6 5 7 13 13 13 12 13 14 13 12 12 13 12 13 13 14
6 5 5 5 4 3 4 4 3 2 1 2 1 1 1 1 1 2 0 5 3 2 3 4 3 3 4 5 5 9 12 11 9 11 13 12 13 13 13 13 13 12 13
6 6 6 5 5 5 5 4 3 3 3 3 3 2 2 2 1 2 1 2 3 4 2 2 2 3 2 3 6 6 11 12 8 11 11 11 12 12 13 12 12 12 12
6 8 7 6 5 5 5 5 4 4 3 3 4 4 3 3 3 3 2 1 1 3 3 1 2 1 2 3 6 7 7 9 7 9 11 10 11 11 11 12 12 12 11
7 9 7 7 7 6 5 5 4 4 4 4 5 4 3 3 3 3 2 1 2 3 4 2 3 2 1 4 4 4 3 6 5 7 9 9 10 11 11 11 11 10 10
7 9 9 8 8 7 6 6 4 4 4 3 4 4 4 3 1 0 1 2 2 2 1 3 2 3 0 1 5 3 3 5 4 4 6 7 8 9 10 10 11 10 10
11 10 9 8 8 7 6 5 4 4 4 4 3 4 3 1 2 0 0 1 2 2 3 2 2 3 1 2 4 2 2 5 2 2 4 6 7 8 9 10 10 10 10
10 10 9 8 7 7 6 5 5 5 4 5 4 4 4 3 2 3 2 1 2 2 3 2 1 3 3 3 3 3 0 3 1 3 4 5 7 8 9 9 9 10 10
10 9 9 8 8 7 6 5 6 6 7 7 5 5 4 3 3 1 3 3 2 1 2 4 2 3 3 2 3 3 2 1 3 5 6 8 8 10 11 11 10 10 10
9 9 8 8 8 7 7 6 7 7 5 5 5 5 4 4 3 3 5 3 2 3 3 3 3 1 1 1 3 3 2 2 2 2 7 8 10 10 13 13 10 10 10
10 9 8 8 7 7 7 7 5 5 5 4 4 3 4 5 4 4 4 3 2 3 3 3 3 2 2 2 1 2 3 2 2 1 4 6 9 11 11 11 10 10 10
8 8 8 7 7 7 6 7 6 6 5 5 5 5 4 4 1 4 2 3 4 3 3 3 3 2 3 3 3 2 1 2 3 1 3 4 3 3 4 6 8 10 11
7 6 7 7 8 5 8 9 6 6 6 5 5 6 5 4 6 9 8 7 6 4 4 3 3 4 4 2 2 2 1 1 1 2 2 4 1 3 2 3 9 13 13
8 7 7 7 6 6 11 11 11 4 5 6 6 5 5 4 6 6 8 8 8 9 8 5 6 4 2 4 2 2 3 2 2 2 2 4 1 3 3 5 12 11 10
8 7 6 6 7 6 13 14 13 7 5 5 5 6 6 7 8 7 7 7 6 5 4 3 5 4 3 3 5 1 1 1 2 2 1 3 1 4 4 4 11 7 9
7 7 5 7 7 4 10 12 12 7 6 6 5 7 8 8 12 15 8 6 5 5 4 7 8 7 5 6 5 3 2 2 2 2 3 2 1 4 4 3 3 7 9
4 4 4 3 4 5 11 15 14 5 7 6 6 8 13 11 13 16 10 7 7 7 5 3 4 6 6 6 7 4 1 3 2 2 4 2 1 2 5 1 2 4 4
Wind_Direction
214 315 6 4 12 359 350 352 19 70 80 88 92 91 82 76 71 77 72 48 44 42 39 39 34 33 37 39 44 48 44 43 38 32 24 23 23 26 21 17 19 22 24
281 327 8 25 356 354 0 6 54 80 101 99 86 77 76 74 69 67 67 74 58 46 44 43 42 39 36 40 40 42 41 40 39 37 22 19 23 23 26 12 13 10 14
215 20 80 12 24 28 335 170 89 93 105 104 84 82 81 77 66 61 58 50 68 61 44 41 40 38 34 34 39 44 45 41 39 33 32 25 24 16 15 1 4 8 16
305 85 184 102 64 91 163 129 108 122 115 86 91 86 94 88 79 70 63 53 46 45 57 46 42 40 36 29 25 26 31 35 30 27 25 18 11 8 5 2 2 15 24
73 288 48 103 147 112 89 122 91 122 107 102 109 104 92 84 82 76 69 62 53 47 42 55 51 37 34 30 25 24 22 22 25 29 33 29 17 8 6 355 8 6 17
152 148 127 119 95 98 115 145 103 85 140 123 112 84 76 72 81 74 76 69 55 51 47 40 29 46 35 30 28 26 21 22 28 33 28 29 18 3 1 4 355 16 26
142 146 124 109 94 99 102 138 143 152 136 129 127 107 91 87 78 82 73 75 67 54 42 40 33 17 24 32 27 28 28 24 21 29 22 17 11 14 1 348 358 14 20
100 115 135 116 111 127 128 167 166 145 103 103 293 163 177 150 110 74 86 76 61 58 53 45 34 30 23 31 27 29 29 27 27 27 18 14 18 16 0 359 8 10 15
121 123 132 124 124 131 111 109 198 190 150 140 281 315 223 39 141 150 88 83 86 73 64 49 42 32 26 37 25 17 22 27 33 16 15 14 11 6 8 15 13 14 14
131 125 125 136 117 104 110 104 109 139 244 165 141 15 32 1 306 160 168 134 99 79 67 71 51 44 23 31 36 25 16 22 30 16 18 13 10 6 8 8 9 6 10
130 150 138 128 119 114 110 130 141 125 72 117 69 142 40 52 357 305 140 156 158 114 70 48 27 45 36 32 25 30 9 14 27 19 16 9 14 10 9 6 3 3 1
148 161 142 139 129 133 137 117 101 89 84 75 84 64 6 338 97 291 268 85 45 112 90 89 48 50 19 57 73 23 12 6 13 17 16 11 10 9 9 4 2 1 2
170 166 154 153 151 144 133 130 117 104 88 88 70 79 62 52 22 18 336 79 276 142 159 143 118 132 58 13 77 19 39 7 9 14 11 10 5 7 4 2 360 4 352
172 155 164 157 146 146 144 136 121 108 108 98 104 81 89 70 44 16 333 279 249 183 167 141 162 123 90 66 83 323 90 12 18 15 10 4 358 359 358 357 356 352 346
151 159 159 160 160 154 154 152 133 128 117 111 92 89 81 91 111 163 7 358 318 300 331 154 169 132 146 173 75 331 355 10 356 16 14 358 349 348 348 348 349 344 343
158 164 161 164 158 157 158 155 143 137 131 105 103 136 140 128 98 297 213 226 271 307 282 68 132 112 153 208 110 299 45 283 239 345 359 349 339 330 331 332 338 337 334
160 164 166 158 160 166 170 166 153 148 138 136 164 168 136 150 173 209 209 233 243 270 280 92 89 127 198 240 201 197 357 313 282 229 298 314 319 318 312 310 319 327 323
168 163 162 159 169 180 163 170 167 168 175 180 169 165 167 180 203 223 233 217 245 215 287 284 139 163 218 182 295 289 217 195 293 301 286 286 287 295 303 297 301 310 318
165 164 161 171 175 176 171 184 182 182 181 171 172 186 165 189 200 210 232 220 216 249 247 268 284 100 227 150 276 250 244 306 255 278 292 288 285 288 295 292 289 300 312
167 168 171 175 179 175 185 190 187 170 177 164 164 186 186 201 222 221 225 235 241 250 240 255 260 240 197 110 283 286 286 173 241 255 285 262 280 285 286 286 282 297 303
170 169 171 179 176 187 192 186 186 177 173 171 172 190 200 211 5 295 242 225 215 241 237 250 257 243 225 189 226 88 276 297 284 91 299 288 282 295 285 277 275 287 298
170 168 176 176 188 197 188 183 169 181 182 176 185 193 194 178 221 233 237 253 268 245 242 236 258 246 244 176 141 218 247 271 306 76 316 284 182 279 277 270 288 301 300
170 176 187 187 193 199 174 189 192 172 179 192 197 200 185 183 206 201 218 227 238 249 250 293 260 252 255 182 150 171 213 199 246 96 346 289 96 278 283 290 298 299 285
182 184 183 189 198 200 181 192 189 198 206 206 194 204 199 203 203 206 195 205 219 221 227 242 263 286 309 135 193 188 54 274 292 200 149 271 23 279 296 285 288 281 270
180 187 174 194 200 189 178 191 188 194 216 207 203 206 210 217 208 211 208 215 222 226 225 245 253 257 233 211 192 150 203 195 260 152 163 268 327 297 274 269 258 269 266
171 166 169 151 177 190 186 199 197 195 214 208 207 215 219 221 217 215 213 204 214 225 189 191 217 216 199 195 210 228 200 210 222 263 126 223 337 355 305 152 237 263 288